Joplin, MO

12:45 PM CDT on April 26, 2017 (GMT -0500)
Joplin Regional

Weather History for KJLN - February, 2014

Change the Weather History Date:

Thursday, February 20, 2014

  Actual Average Record
Temperature  
Mean Temperature 55 °F 41 °F  
Max Temperature 69 °F 52 °F 78 °F (1981)
Min Temperature 40 °F 31 °F 16 °F (1963)
Degree Days  
Heating Degree Days 10 24  
Month to date heating degree days 690 527  
Since 1 July heating degree days 3622 3076  
Cooling Degree Days 0 0  
Month to date cooling degree days 0 0  
Year to date cooling degree days 0 0  
Growing Degree Days 4 (Base 50)    
Moisture  
Dew Point 42 °F    
Average Humidity 63    
Maximum Humidity 90    
Minimum Humidity 36    
Precipitation  
Precipitation 0.04 in 0.09 in 2.08 in (1997)
Month to date precipitation 0.24 1.58  
Year to date precipitation 0.83 3.61  
Sea Level Pressure  
Sea Level Pressure 29.63 in    
Wind  
Wind Speed 21 mph (SW)    
Max Wind Speed 41 mph    
Max Gust Speed 57 mph    
Visibility 10 miles    
Events Rain , Thunderstorm    
T = Trace of Precipitation, MM = Missing Value Source: NWS Daily Summary

Daily Weather History Graph

Daily Weather History Graph

Search for Another Location

Airport or City:

Trip Planner

Search our weather history database for the weather conditions in past years. The results will help you decide how hot, cold, wet, or windy it might be!

Date:

Astronomy

Feb. 20, 2014 Rise Set
Actual Time 7:00 AM CST 6:03 PM CST
Civil Twilight 6:34 AM CST 6:29 PM CST
Nautical Twilight 6:04 AM CST 6:59 PM CST
Astronomical Twilight 5:33 AM CST 7:30 PM CST
Moon 11:49 PM CST (2/20) 9:52 AM CST (2/20)
Length of Visible Light 11h 55m
Length of Day
11h 02m
Waning Gibbous, 70% of the Moon is Illuminated
Feb 20
Waning Gibbous
Feb 22
Last Quarter
Mar 1
New
Mar 8
First Quarter
Mar 16
Full

Hourly Weather History & Observations

Time (CST) Temp. Windchill Dew Point Humidity Pressure Visibility Wind Dir Wind Speed Gust Speed Precip Events Conditions
12:14 AM 61.0 °F - 53.1 °F 75% 29.58 in 10.0 mi SSE 11.5 mph - N/A   Overcast
12:24 AM 61.0 °F - 53.1 °F 75% 29.57 in 10.0 mi SSE 15.0 mph - N/A   Overcast
12:53 AM 62.1 °F - 54.0 °F 75% 29.54 in 10.0 mi SSE 16.1 mph 23.0 mph N/A   Overcast
1:24 AM 63.0 °F - 55.0 °F 75% 29.55 in 10.0 mi South 17.3 mph 25.3 mph N/A   Overcast
1:46 AM 62.1 °F - 55.9 °F 80% 29.54 in 8.0 mi South 24.2 mph 33.4 mph 0.00 in Rain Light Rain
1:53 AM 61.0 °F - 57.0 °F 87% 29.50 in 4.0 mi South 34.5 mph 42.6 mph 0.02 in Rain Rain
2:10 AM 61.0 °F - 57.0 °F 87% 29.53 in 9.0 mi South 20.7 mph 35.7 mph 0.01 in Rain , Thunderstorm Light Rain
2:20 AM 60.1 °F - 55.9 °F 86% 29.51 in 8.0 mi South 17.3 mph - 0.02 in Rain , Thunderstorm Light Thunderstorms and Rain
2:41 AM 61.0 °F - 57.0 °F 87% 29.51 in 10.0 mi South 15.0 mph - 0.02 in   Overcast
2:53 AM 61.0 °F - 57.0 °F 87% 29.48 in 9.0 mi South 18.4 mph 28.8 mph 0.02 in   Overcast
3:53 AM 61.0 °F - 57.0 °F 87% 29.43 in 10.0 mi South 18.4 mph - N/A   Overcast
4:53 AM 63.0 °F - 57.0 °F 81% 29.41 in 10.0 mi South 19.6 mph 31.1 mph N/A   Overcast
5:53 AM 63.0 °F - 57.0 °F 81% 29.40 in 10.0 mi South 21.9 mph 33.4 mph N/A   Mostly Cloudy
6:53 AM 63.0 °F - 57.0 °F 81% 29.38 in 10.0 mi South 17.3 mph 27.6 mph N/A   Scattered Clouds
7:53 AM 64.9 °F - 55.9 °F 73% 29.37 in 10.0 mi South 29.9 mph 40.3 mph N/A   Mostly Cloudy
8:53 AM 66.9 °F - 55.9 °F 68% 29.36 in 10.0 mi SSW 27.6 mph 38.0 mph N/A   Mostly Cloudy
9:53 AM 66.9 °F - 54.0 °F 63% 29.37 in 10.0 mi SSW 27.6 mph 42.6 mph N/A   Mostly Cloudy
10:53 AM 64.0 °F - 39.0 °F 40% 29.43 in 10.0 mi SW 34.5 mph 57.5 mph N/A   Mostly Cloudy
11:53 AM 46.9 °F - 39.9 °F 77% 29.59 in 9.0 mi West 33.4 mph 44.9 mph N/A   Overcast
12:53 PM 42.1 °F 32.3 °F 33.1 °F 70% 29.67 in 10.0 mi West 24.2 mph 33.4 mph 0.00 in   Overcast
1:53 PM 42.1 °F 32.1 °F 30.9 °F 65% 29.75 in 10.0 mi WNW 25.3 mph 33.4 mph N/A   Overcast
2:24 PM 45.0 °F 36.2 °F 30.9 °F 58% 29.78 in 10.0 mi WNW 24.2 mph 33.4 mph N/A   Overcast
2:53 PM 46.0 °F 37.2 °F 30.9 °F 56% 29.79 in 10.0 mi NW 26.5 mph 35.7 mph N/A   Overcast
3:53 PM 45.0 °F 36.6 °F 33.1 °F 63% 29.85 in 10.0 mi NW 21.9 mph 27.6 mph 0.00 in   Mostly Cloudy
4:03 PM 46.0 °F 38.0 °F 30.0 °F 54% 29.85 in 10.0 mi WNW 21.9 mph 33.4 mph N/A   Mostly Cloudy
4:53 PM 46.9 °F - 27.0 °F 46% 29.85 in 10.0 mi WNW 13.8 mph 28.8 mph N/A   Partly Cloudy
5:53 PM 46.0 °F 40.2 °F 25.0 °F 44% 29.85 in 10.0 mi West 12.7 mph 21.9 mph N/A   Clear
6:53 PM 43.0 °F 38.2 °F 24.1 °F 47% 29.87 in 10.0 mi WSW 8.1 mph - N/A   Partly Cloudy
7:53 PM 42.1 °F 35.7 °F 24.1 °F 49% 29.89 in 10.0 mi WSW 11.5 mph - N/A   Clear
8:53 PM 42.1 °F 34.5 °F 21.0 °F 43% 29.90 in 10.0 mi WSW 15.0 mph 21.9 mph N/A   Clear
9:53 PM 42.1 °F 34.5 °F 17.1 °F 37% 29.91 in 10.0 mi West 15.0 mph - N/A   Clear
10:53 PM 42.1 °F 34.2 °F 18.0 °F 38% 29.92 in 10.0 mi West 16.1 mph - N/A   Clear
11:53 PM 39.9 °F 31.1 °F 19.0 °F 43% 29.94 in 10.0 mi WSW 17.3 mph 23.0 mph N/A   Clear